[[{"header":{"parameterUnit":"m.s-1","parameterCategory":1,"la1":30.2991,"la2":30.254,"lo1":-89.0895,"lo2":-89.0444,"dy":0.0017,"dx":0.0017,"nx":28,"ny":28,"refTime":"2025-09-03T21:00:00:Z","depth":0,"parameterNumber":2,"parameterNumberName":"U-component_of_WINDS"},"data":[0,0,0,0,0,0,0,0,0,0,0,0,0,0,0,0,0,0,0,0,0,0,0,0,0,0,0,0,0,0,0,0,0,0,0,0,0,0,0,0,0,0,0,0,0,0,0,0,0,0,0,0,0,0,0,0,0,0,-1.838,-1.8379,0,-1.8315,-1.8315,-1.8314,-1.8264,-1.8263,-1.8263,-1.8262,-1.8195,-1.8193,-1.8192,0,0,0,0,0,0,0,0,0,0,0,0,0,-1.8458,-1.8457,-1.838,-1.8379,-1.8378,-1.8316,-1.8315,-1.8314,-1.8264,-1.8263,-1.8262,-1.8262,-1.8195,-1.8194,-1.8192,0,0,0,0,0,0,0,0,0,0,0,0,0,-1.8412,-1.8456,-1.838,-1.8346,-1.8342,-1.8316,-1.8315,-1.8314,-1.8264,-1.8263,-1.8262,-1.8262,-1.8196,-1.8194,-1.8192,-1.8194,0,0,-1.8186,-1.8185,0,0,0,0,0,0,0,0,-1.8414,-1.8409,-1.8352,-1.8348,-1.8344,-1.8297,-1.8317,-1.8273,-1.8264,-1.8293,-1.8262,-1.8261,-1.8229,-1.8224,-1.8214,-1.8191,-1.8188,-1.8185,-1.8184,-1.8183,-1.8183,0,0,0,0,0,0,0,-1.8418,-1.8411,-1.8354,-1.8351,-1.8346,-1.8333,-1.8326,-1.8309,-1.8266,-1.8291,-1.8287,-1.828,-1.8227,-1.8216,-1.8212,-1.8187,-1.8185,-1.8184,-1.8182,-1.8182,-1.816,-1.8161,0,0,0,0,0,0,-1.8426,-1.8414,-1.8356,-1.8352,-1.8378,-1.8332,-1.8324,-1.8313,-1.8266,-1.8258,-1.8281,-1.8278,-1.822,-1.8214,-1.8209,-1.8207,-1.8183,-1.8181,-1.818,-1.8159,-1.816,-1.8161,0,0,0,0,0,0,-1.8428,-1.8422,-1.8359,-1.8382,-1.8373,-1.8332,-1.8319,-1.8312,-1.8301,-1.8259,-1.8251,-1.8278,-1.8219,-1.8212,-1.8198,-1.8204,-1.8181,-1.8179,-1.8159,-1.816,-1.8161,-1.8204,0,0,0,0,0,0,-1.8431,-1.8423,-1.8424,-1.8383,-1.8372,-1.8349,-1.832,-1.8311,-1.8297,-1.8293,-1.8253,-1.8246,-1.8218,-1.8201,-1.8196,-1.8201,-1.8177,-1.8158,-1.8159,-1.816,-1.8201,-1.8206,-1.821,0,0,0,0,0,-1.8434,-1.8438,-1.8424,-1.8417,-1.8373,-1.835,-1.8344,-1.8311,-1.8298,-1.8298,-1.8271,-1.8247,-1.8205,-1.82,-1.8194,-1.8198,-1.8157,-1.8159,-1.816,-1.82,-1.8205,-1.821,0,0,0,0,0,0,-1.8481,-1.8432,-1.8416,-1.8408,-1.8383,-1.8341,-1.834,-1.8319,-1.8297,-1.8294,-1.8254,-1.8246,-1.8235,-1.8215,-1.8211,-1.8197,-1.8178,-1.8178,-1.821,-1.8215,-1.8219,-1.8223,-1.8175,0,0,0,0,0,-1.849,-1.8476,-1.8435,-1.8431,-1.842,-1.8383,-1.8371,-1.8349,-1.8322,-1.8311,-1.8283,-1.8257,-1.8237,-1.8225,-1.8205,-1.8199,-1.8188,-1.8199,-1.8203,-1.8207,-1.8207,-1.82,-1.8204,-1.8166,-1.8166,-1.8166,0,0,-1.851,-1.8482,-1.8475,-1.844,-1.8418,-1.8404,-1.8374,-1.836,-1.8349,-1.8309,-1.8293,-1.8271,-1.824,-1.8229,-1.8223,-1.8212,-1.8215,-1.8209,-1.8212,-1.821,-1.8202,-1.8206,-1.8209,-1.8167,-1.8166,-1.8166,0,0,-1.8537,-1.8515,-1.8509,-1.8488,-1.8456,-1.843,-1.8429,-1.839,-1.8374,-1.8358,-1.8327,-1.8313,-1.8281,-1.8259,-1.8244,-1.8262,-1.8239,-1.8257,-1.8278,-1.8272,-1.8275,-1.8277,-1.8282,-1.8285,-1.8258,-1.8258,-1.8258,0,-1.8565,-1.8542,-1.8509,-1.8496,-1.8481,-1.8444,-1.8437,-1.8418,-1.8381,-1.8371,-1.836,-1.8318,-1.8294,-1.8277,-1.8281,-1.8271,-1.8267,-1.826,-1.8278,-1.828,-1.8281,-1.8285,-1.8287,-1.826,-1.826,-1.8259,-1.8259,0,-1.8577,-1.8562,-1.8561,-1.8525,-1.851,-1.8501,-1.8465,-1.8454,-1.8432,-1.8408,-1.8391,-1.8362,-1.8334,-1.8329,-1.8308,-1.8308,-1.8302,-1.8285,-1.8265,-1.8288,-1.8291,-1.8292,-1.8263,-1.8262,-1.8262,-1.8261,0,0,-1.8631,-1.8577,-1.8577,-1.856,-1.8522,-1.8509,-1.8497,-1.847,-1.8461,-1.8436,-1.8424,-1.8398,-1.8381,-1.8364,-1.834,-1.8336,-1.835,-1.8318,-1.8317,-1.8324,-1.8346,-1.8358,-1.836,-1.8335,-1.8335,-1.8335,-1.8348,0,-1.8651,-1.8628,-1.8597,-1.8584,-1.8569,-1.8534,-1.8523,-1.8498,-1.8475,-1.8458,-1.8433,-1.8414,-1.8394,-1.8383,-1.8377,-1.8349,-1.8353,-1.8348,-1.8322,-1.8321,-1.8329,-1.8362,-1.8375,-1.8388,-1.8349,-1.8349,-1.8349,0,-1.8671,-1.8648,-1.8633,-1.8595,-1.8587,-1.8578,-1.855,-1.8535,-1.8505,-1.8489,-1.847,-1.8444,-1.8429,-1.8412,-1.839,-1.8387,-1.8375,-1.8359,-1.8359,-1.8354,-1.8336,-1.8356,-1.8392,-1.8393,-1.8351,-1.8351,-1.8351,0,-1.8709,-1.8675,-1.8661,-1.8648,-1.8603,-1.8598,-1.8579,-1.8548,-1.8534,-1.851,-1.85,-1.8474,-1.846,-1.8441,-1.8408,-1.8399,-1.8389,-1.837,-1.8373,-1.8374,-1.8371,-1.8372,-1.8404,-1.8367,-1.8367,-1.8367,-1.8367,0,-1.8733,-1.8725,-1.8678,-1.8669,-1.8659,-1.8624,-1.8614,-1.8592,-1.8565,-1.8551,-1.852,-1.8507,-1.8466,-1.8448,-1.8423,-1.8407,-1.8402,-1.8387,-1.838,-1.8389,-1.839,-1.8379,-1.8376,-1.8367,-1.8367,-1.8367,-1.8367,0,-1.8774,-1.8742,-1.8725,-1.8684,-1.8673,-1.8667,-1.8632,-1.8621,-1.8597,-1.8579,-1.8573,-1.8534,-1.8512,-1.8478,-1.8446,-1.8429,-1.8416,-1.8406,-1.8426,-1.8422,-1.8426,-1.8426,-1.8451,-1.8452,-1.8416,-1.8416,-1.8417,0,-1.879,-1.8783,-1.8741,-1.873,-1.8712,-1.8694,-1.8679,-1.8644,-1.8629,-1.8594,-1.8588,-1.8563,-1.8541,-1.8506,-1.8475,-1.8449,-1.8437,-1.8448,-1.8433,-1.8441,-1.8435,-1.8435,-1.8433,-1.8451,-1.8451,-1.8452,-1.8452,0,-1.8822,-1.8807,-1.8786,-1.876,-1.8743,-1.8721,-1.8697,-1.8689,-1.8649,-1.8634,-1.8611,-1.8594,-1.856,-1.8535,-1.8505,-1.8485,-1.8461,-1.8457,-1.8456,-1.8464,-1.8475,-1.8467,-1.8434,-1.8456,-1.8456,-1.8456,-1.8455,-1.8455,-1.885,-1.8841,-1.881,-1.8788,-1.8767,-1.8745,-1.8733,-1.8707,-1.8687,-1.8657,-1.8637,-1.8614,-1.8584,-1.8541,-1.8522,-1.8503,-1.8493,-1.8493,-1.8492,-1.8492,-1.8494,-1.848,-1.8498,-1.8498,-1.8497,-1.8497,-1.8497,0,-1.8879,-1.8857,-1.8837,-1.8804,-1.8787,-1.8767,-1.874,-1.8726,-1.8706,-1.868,-1.8659,-1.8631,-1.8607,-1.8573,-1.8546,-1.8537,-1.8526,-1.8531,-1.853,-1.8526,-1.8505,-1.8508,-1.8541,-1.8541,-1.8541,-1.8541,-1.8541,-1.8541,-1.8891,-1.8875,-1.8856,-1.8828,-1.8806,-1.8784,-1.877,-1.8749,-1.8728,-1.8698,-1.8677,-1.8656,-1.8626,-1.8597,-1.8573,-1.8564,-1.8554,-1.8563,-1.855,-1.8531,-1.8527,-1.8523,-1.8526,-1.8561,-1.8562,-1.8571,-1.8572,-1.8572]},{"header":{"parameterUnit":"m.s-1","parameterCategory":1,"la1":30.2991,"la2":30.254,"lo1":-89.0895,"lo2":-89.0444,"dy":0.0017,"dx":0.0017,"nx":28,"ny":28,"refTime":"2025-09-03T21:00:00:Z","depth":0,"parameterNumber":3,"parameterNumberName":"V-component_of_WINDS"},"data":[0,0,0,0,0,0,0,0,0,0,0,0,0,0,0,0,0,0,0,0,0,0,0,0,0,0,0,0,0,0,0,0,0,0,0,0,0,0,0,0,0,0,0,0,0,0,0,0,0,0,0,0,0,0,0,0,0,0,4.2865,4.2866,0,4.2947,4.2948,4.2949,4.2969,4.2968,4.2968,4.2967,4.3045,4.3048,4.305,0,0,0,0,0,0,0,0,0,0,0,0,0,4.2722,4.2725,4.2865,4.2866,4.2867,4.2947,4.2948,4.2949,4.2969,4.2968,4.2968,4.2967,4.3045,4.3048,4.3051,0,0,0,0,0,0,0,0,0,0,0,0,0,4.2792,4.2725,4.2865,4.2887,4.289,4.2946,4.2948,4.2949,4.2969,4.2968,4.2968,4.2967,4.3044,4.3047,4.3051,4.309,0,0,4.3063,4.3064,0,0,0,0,0,0,0,0,4.2788,4.2797,4.2882,4.2885,4.2889,4.2947,4.2926,4.2996,4.2969,4.2939,4.2967,4.2966,4.3013,4.3019,4.3036,4.3094,4.3097,4.3063,4.3065,4.3067,4.3068,0,0,0,0,0,0,0,4.2783,4.2794,4.2897,4.2884,4.2887,4.2891,4.29,4.2939,4.2979,4.2941,4.2943,4.2953,4.3014,4.3032,4.3038,4.3098,4.3063,4.3066,4.3069,4.307,4.3195,4.3196,0,0,0,0,0,0,4.2775,4.279,4.2894,4.29,4.2836,4.2895,4.2905,4.2929,4.2979,4.2986,4.2953,4.2953,4.3026,4.3033,4.3041,4.3092,4.3067,4.3071,4.3073,4.3194,4.3195,4.3196,0,0,0,0,0,0,4.2772,4.2784,4.2891,4.2845,4.2859,4.2898,4.2925,4.2931,4.2949,4.2988,4.2994,4.2965,4.3026,4.3035,4.3079,4.3095,4.3072,4.3076,4.3193,4.3194,4.3196,4.3193,0,0,0,0,0,0,4.2768,4.2783,4.2799,4.2845,4.2862,4.2929,4.2926,4.2933,4.2956,4.2957,4.3,4.3006,4.3026,4.3073,4.3083,4.31,4.3079,4.3191,4.3193,4.3195,4.3192,4.3194,4.3196,0,0,0,0,0,4.2763,4.2793,4.28,4.2812,4.2882,4.293,4.2939,4.2962,4.2957,4.2974,4.2999,4.3005,4.3092,4.3077,4.3088,4.3107,4.319,4.3193,4.3195,4.3191,4.3194,4.3196,0,0,0,0,0,0,4.2744,4.2799,4.2807,4.2854,4.2887,4.2933,4.2954,4.2964,4.2998,4.2997,4.3023,4.3032,4.3075,4.3095,4.3078,4.3148,4.3141,4.3145,4.3134,4.3137,4.3139,4.3134,4.3082,0,0,0,0,0,4.2746,4.2782,4.2827,4.2863,4.288,4.2914,4.2936,4.2951,4.2986,4.3,4.3028,4.306,4.3095,4.3117,4.3151,4.3195,4.3205,4.3213,4.3215,4.3217,4.3221,4.3248,4.3252,4.3204,4.3204,4.3204,0,0,4.2749,4.2784,4.2804,4.2861,4.2889,4.2924,4.2926,4.2962,4.2989,4.3004,4.3049,4.307,4.3108,4.3153,4.3174,4.3171,4.3237,4.322,4.3221,4.3224,4.3251,4.3255,4.3259,4.3205,4.3205,4.3205,0,0,4.2774,4.2803,4.2838,4.2867,4.291,4.2933,4.2942,4.2987,4.3003,4.3048,4.3062,4.3092,4.3151,4.3178,4.32,4.3238,4.3245,4.3248,4.326,4.3286,4.329,4.3293,4.3308,4.3313,4.3251,4.3251,4.3251,0,4.2771,4.2827,4.2854,4.2892,4.2917,4.2936,4.2972,4.2998,4.3048,4.3065,4.3062,4.3138,4.3164,4.3217,4.3227,4.3243,4.3254,4.3243,4.3287,4.3291,4.3295,4.3309,4.3315,4.3252,4.3252,4.3252,4.3251,0,4.2823,4.2862,4.2885,4.2937,4.2965,4.3001,4.3033,4.3058,4.3072,4.3095,4.3141,4.3174,4.3216,4.3229,4.3242,4.3284,4.3282,4.3282,4.3275,4.3299,4.3314,4.3319,4.3252,4.3252,4.3252,4.3252,0,0,4.2836,4.2907,4.2915,4.294,4.2991,4.302,4.3058,4.3102,4.3123,4.3158,4.319,4.3241,4.3243,4.3267,4.3283,4.3306,4.3337,4.3304,4.3305,4.331,4.3388,4.3387,4.3394,4.3342,4.3343,4.3344,4.3385,0,4.2868,4.2938,4.2966,4.3022,4.3059,4.3079,4.3112,4.3146,4.3169,4.3202,4.3227,4.3264,4.3263,4.3278,4.3302,4.3328,4.3353,4.3325,4.3372,4.3373,4.3363,4.3401,4.34,4.3437,4.339,4.3391,4.3392,0,4.2914,4.2954,4.3015,4.3064,4.3081,4.311,4.3154,4.3186,4.3225,4.324,4.327,4.3285,4.3324,4.3315,4.337,4.3351,4.3372,4.3388,4.339,4.3396,4.3384,4.3408,4.3449,4.3455,4.3401,4.34,4.34,0,4.292,4.2988,4.3034,4.3055,4.3113,4.3134,4.3158,4.3197,4.3223,4.3261,4.3278,4.3318,4.3341,4.3371,4.3397,4.3388,4.3451,4.3443,4.3464,4.3464,4.3477,4.3476,4.3523,4.3489,4.3488,4.3488,4.3488,0,4.2953,4.299,4.3038,4.3067,4.3109,4.314,4.3181,4.3206,4.3242,4.3275,4.3293,4.3324,4.3356,4.339,4.341,4.3454,4.3463,4.3477,4.3482,4.3476,4.3474,4.349,4.3488,4.349,4.349,4.3489,4.3489,0,4.2966,4.3,4.3052,4.3105,4.3119,4.3148,4.3192,4.322,4.3245,4.3287,4.3299,4.3337,4.3379,4.3409,4.3461,4.3475,4.3523,4.3526,4.351,4.3513,4.3533,4.3531,4.3592,4.3603,4.3561,4.3561,4.3561,0,4.2985,4.3015,4.3072,4.3097,4.3123,4.3162,4.319,4.3221,4.3249,4.3298,4.3321,4.3365,4.3402,4.3468,4.3499,4.354,4.3546,4.3565,4.3552,4.3546,4.3548,4.3547,4.355,4.3567,4.3567,4.3567,4.3567,0,4.3016,4.3033,4.3073,4.312,4.3153,4.3191,4.3228,4.3247,4.3285,4.3315,4.336,4.3389,4.3446,4.3489,4.3534,4.3558,4.3569,4.3572,4.3579,4.3573,4.3563,4.3571,4.3517,4.357,4.357,4.3569,4.3569,4.3569,4.3034,4.3063,4.3109,4.3153,4.3186,4.3221,4.3252,4.3282,4.3321,4.3371,4.3387,4.3434,4.3474,4.3536,4.3561,4.3598,4.3596,4.3606,4.3609,4.3611,4.3612,4.3557,4.3606,4.3606,4.3606,4.3605,4.3605,0,4.3068,4.3099,4.314,4.3194,4.323,4.3241,4.3283,4.3312,4.3354,4.3392,4.3429,4.3482,4.3525,4.3562,4.3606,4.3628,4.3635,4.3639,4.3638,4.3644,4.361,4.36,4.3633,4.3633,4.3633,4.3633,4.3633,4.3633,4.3089,4.3139,4.3161,4.3228,4.3258,4.3307,4.3331,4.3364,4.3395,4.3454,4.3491,4.3516,4.3553,4.3601,4.3641,4.3651,4.3666,4.367,4.3681,4.3649,4.3646,4.3643,4.3633,4.3673,4.3673,4.3711,4.3711,4.3712]}]]